Tracking 33198 objects as of 13-Feb-2026
HD Live streaming from Space Station
objects crossing your sky now

FALCON 9 R/B

Track FALCON 9 R/B now!


NORAD ID: 62484
Int'l Code: 2025-001B
Perigee: 676.2 km
Apogee: 53,527.8 km
Inclination: 25.3 °
Period: 1,015.8 minutes
Semi major axis: 33473 km
RCS: Unknown
Launch date: January 4, 2025
Source: United States (US)
Launch site: AIR FORCE EASTERN TEST RANGE (AFETR)

Note: This is a ROCKET BODY
Your satellite tracking list
Your tracking list is empty




NASA's NSSDC Master Catalog

Two Line Element Set (TLE):
1 62484U 25001B   26043.36526994 -.00000121  00000-0 -11346-2 0  9994
2 62484  25.2743 235.3148 7894656 320.1573   2.8853  1.41762292  5736
Source of the keplerian elements: AFSPC